FENGYUN 1C DEB, 29740

Orbit data source: Space-Track

FENGYUN 1C DEB, 29740 is space debris in SSO originally from a launch on Mon, 10 May 1999 UTC launched from the Taiyaun Space Center, China (TSC). Fengyun 1C debris stems from the Chinese weather satellite Fengyun-1C, which was intentionally destroyed by a Chinese anti-satellite missile in 2007. This event dramatically increased the amount of space debris, with thousands of trackable fragments posing hazards to satellites and human spaceflight. The Fengyun 1C debris cloud has become a focal point in discussions about space sustainability and the need for international regulations to prevent the creation of new debris.

Loading next visibility...
Identifier
29740, 1999-025AE
Orbit
SSO
Country
Flag of CNCN / PRC
Related business
Manufacturer
Unknown
Mission
Spacecraft
Bus & Motor
Unknown
Mass
Unknown
Launch date (UTC)
Icon of a cake. It is the launch day of the satellite!1999-05-10 (27 years ago)
Launch vehicle
Unknown
Launch site
Taiyaun Space Center, China (TSC)
Object type
Payload
Rocket body
Debris
Shape & HBR
Unknown shape, 0.1 m
Radar Cross Section
Small (<0.1 m²)

Expand to show TLE details & history
Last TLE update: 14 hours ago

TLE from 14 hours ago
0 FENGYUN 1C DEB
1 29740U 99025AE  26129.94825205  .00000876  00000-0  23525-2 0  9992
2 29740  99.0459 304.3171 0973810 262.5338  86.4213 12.08566276847259
Epoch: 2026-05-09T22:45Z
TLE epoch observation values (Epoch: 2026-05-09T22:45:28.977Z)
Latitude
-0°
Longitude
95.188°
Altitude
1,672.592 km
Speed
7.026 km/s
True Right ascension
20h 17m 16s
True Declination
0° 00' 00"
Sunlit
Object was in daylight at epoch
Visualization orbit readout
Latitude
Unknown
Longitude
Unknown
Altitude
Unknown
Speed
Unknown
Apparent Right ascension
Unknown
Apparent Declination
Unknown
Sunlit
N/A
Visualization observer readout
Local Sidereal Time
21:27:38
Azimuth
Unknown
Elevation
Unknown
Doppler factor
Unknown
Orbital elements
Apogee altitude
2,420.991 km
Perigee altitude
859.331 km
Semi-major axis
8,018.298 km
Eccentricity
0.09738
Inclination
99.0459°
RAAN
304.3171°
Arg. of periapsis
262.5338°
True anomaly
97.57295°
Mean anomaly
86.4213°
Eccentric anomaly
91.99743°
Mean motion
3.02287 °/min
Orbital period
119.09 mins
BSTAR
0.0023525
Loading maneuver chart data...
Computing Atmospheric mass density...

Documentation

Showing up to 5 results
|